Lid_Strength_Index
5 4 4 3 3 1 -0 -0 -0 -1 -0 1 1 1 1 0 0 -0 -0 -1 -1 -1 -0 -0 -0 -1 -0 -0 -1 0 0 1 -0 1 1 1 -0 0 0 -0 -0 -0 -1
5 5 4 4 2 0 0 0 0 -0 0 0 0 0 0 0 -0 -0 -0 -1 -1 -1 -1 -1 -1 -1 -0 -1 -0 -0 1 1 0 2 2 4 2 1 0 0 0 -0 -0
6 5 5 3 2 1 1 0 0 0 0 -1 -0 -0 -0 0 0 1 0 -0 -1 -0 -1 -1 -1 -1 -1 -0 -0 -0 0 2 1 -0 2 5 5 3 1 1 1 0 0
3 2 2 1 1 1 0 -0 -0 0 0 -0 0 1 1 2 1 1 0 0 -1 -1 -1 -1 -1 -1 -1 -1 -1 -1 -0 -0 2 1 0 0 1 4 5 2 1 0 1
3 2 2 1 1 1 0 0 -0 0 -0 0 0 1 1 1 0 0 0 -0 -0 -1 -1 -1 -1 -1 -1 -2 -1 -1 -1 0 1 1 1 1 1 1 3 5 3 1 0
3 2 2 2 1 1 1 0 0 0 -0 0 0 0 1 1 1 1 1 1 0 -0 -1 -1 -1 -1 -1 -1 -1 -1 -1 -0 -0 0 1 1 2 2 3 3 3 3 1
3 3 3 2 2 2 2 1 1 1 0 0 1 0 0 0 0 1 1 1 1 0 -0 -1 -1 -1 -1 -1 -1 -1 -1 -1 0 0 1 0 1 1 1 2 3 3 2
3 3 3 2 2 2 2 2 1 1 1 1 1 0 0 1 1 0 0 0 0 -0 -1 -1 -1 -1 -1 -1 -1 -0 -0 -1 -0 -0 0 0 1 1 1 1 2 3 3
3 3 2 2 2 2 1 1 1 1 1 1 1 0 0 -0 -0 -0 -1 -0 -2 -1 -1 -1 -1 -1 -1 -1 -1 -0 -0 -0 -0 -0 -0 0 0 0 1 1 1 2 4
3 3 2 2 2 1 1 1 1 1 1 0 0 0 -0 -0 -1 -1 -0 -1 -1 -1 -1 -1 -1 -0 -0 -1 -1 -0 -0 0 0 0 0 0 0 -0 0 0 0 1 2
3 3 2 2 1 1 1 1 1 1 1 0 0 -0 -0 -0 -0 -0 -0 -1 -1 -1 -0 -0 -0 -0 -0 -0 -0 0 0 0 0 0 0 1 -0 1 0 0 0 1 1
3 3 2 2 2 1 1 1 1 1 0 -0 -0 0 0 -0 -0 -0 -0 -1 -0 -0 -0 -0 -0 0 0 -0 0 1 0 1 1 1 1 1 1 1 0 1 1 1 1
3 3 2 2 2 2 1 1 1 1 1 0 0 0 0 -0 0 -0 -0 -1 -0 -0 -0 -0 0 0 0 0 0 0 1 1 1 1 1 1 1 1 1 1 1 1 1
4 3 2 2 2 2 1 1 1 1 1 1 1 1 0 0 -0 -0 -0 -0 -0 -0 -0 -0 0 -0 -0 0 0 0 0 0 1 0 1 1 1 1 1 1 1 1 1
3 3 3 2 2 2 1 1 1 1 0 1 1 1 0 -0 -0 0 -0 -0 -0 -0 -0 -0 -0 0 0 0 0 0 0 1 1 1 0 0 1 1 1 1 1 1 2
4 3 3 2 3 2 2 1 1 1 1 1 1 1 1 1 1 0 0 0 0 0 0 0 1 0 0 3 4 2 0 0 1 1 1 0 1 1 3 3 2 1 2
3 3 3 2 2 2 1 1 1 1 1 1 1 1 1 2 1 1 1 0 0 0 1 0 1 1 0 4 5 4 1 1 1 1 1 1 1 1 0 1 3 3 3
3 3 2 2 1 1 1 1 1 1 2 2 2 2 2 3 2 2 2 0 0 1 1 1 0 1 0 5 7 6 3 2 2 2 2 1 1 1 1 1 1 1 0
2 2 2 1 1 1 1 1 2 2 2 3 3 3 3 3 3 3 2 1 1 2 2 3 3 3 3 6 8 8 5 5 4 3 3 3 3 4 6 3 3 2 1
2 2 1 1 1 1 1 2 3 3 3 3 3 3 3 3 3 3 3 4 4 5 5 6 7 8 8 8 9 9 9 9 9 8 7 8 7 7 9 4 3 3 3
2 1 2 2 2 2 2 3 3 4 3 3 3 3 3 3 4 5 6 8 9 10 11 11 11 10 10 9 10 10 9 9 9 8 8 6 8 10 10 10 4 3 3
2 2 3 3 2 2 3 4 4 3 3 3 4 5 6 7 9 11 12 12 12 12 12 12 11 10 9 9 10 10 9 9 8 7 6 5 8 8 8 8 7 7 6
3 3 3 3 3 3 3 4 4 4 5 7 8 8 10 13 13 14 13 12 11 12 12 12 11 10 9 7 8 9 9 8 7 5 5 7 8 8 7 8 7 8 3
3 3 4 4 5 4 4 5 6 7 9 12 13 13 13 13 13 13 12 11 11 11 11 11 10 9 8 8 8 6 6 7 7 6 5 5 6 6 5 5 4 2 2
4 4 5 5 6 6 6 8 11 12 14 14 14 14 14 14 14 13 12 12 10 9 10 10 10 10 10 9 9 10 8 9 9 9 7 6 4 3 3 2 2 3 3
6 6 6 7 7 8 11 12 13 13 15 15 15 15 15 14 14 13 12 10 10 10 11 11 11 10 10 11 10 10 10 11 11 9 8 4 4 4 3 4 3 3 3